Content
SEND FEEDBACK

Daily
Averages
Monthly
Summary
United States of America

TRUCHAS, NEW MEXICO


Home > North America > United States > New Mexico
Elevation: 7828 feet     Latitude: 36 02N     Longitude: 105 49W

WEATHER
 
SELECT A DAY
Number of Records: 237,488;   Date Range: 1/1/95 - 9/18/14
 
SHARE

PRINT THIS DATA

[ ← Previous Day ]
WEATHER ALMANAC - JANUARY 23, 2013
[ Next Day → ]
[ °C ]   °F
Weather ElementAverageHighLow
Temperature40.7 °F50.7 °F (2:35 pm)23.2 °F (6:55 am)
Dewpoint8.2 °F12.6 °F (2:55 pm)2.1 °F (11:55 pm)
Humidity28.3 %62 % (6:55 am)17 % (7:55 pm)
Barometer30.37 in30.42 in (9:55 am)30.34 in (1:35 am)
Wind Speed1.8 mph8.1 mph (3:55 am)
Weather ElementAverage
Visibility10 mi
Wind DirectionENE (64.4 °)

Weather ElementTotal
Precipitation---
Heating Degree Days28.1 (Base 65)
Averaged from 66 records on January 23, 2013
WEATHER CONDITIONS BREAKOUT
WIND DIRECTION BREAKOUT
WEATHER BY HOUR - JANUARY 23, 2013
[ °C ]   °F
Local TimeTemperatureDewpointHumidityBarometerVisibilityWind DirectionWind SpeedGust SpeedPrecipitationEventsConditions
1:35 AM37.2 °F4.1 °F25 %30.34 in10.0 miCalmClear
1:55 AM35.6 °F7.5 °F31 %30.35 in10.0 miCalmClear
2:55 AM32.0 °F7.3 °F36 %30.36 in10.0 miNorth (350°)6.9 mphClear
3:15 AM35.1 °F8.1 °F33 %30.36 in10.0 miNW (320°)4.6 mphClear
3:35 AM32.9 °F4.1 °F30 %30.35 in10.0 miNorth (350°)3.5 mphClear
3:55 AM35.4 °F8.1 °F32 %30.35 in10.0 miNorth (360°)8.1 mphClear
4:15 AM36.5 °F6.6 °F29 %30.35 in10.0 miNNE (20°)6.9 mphClear
4:35 AM34.7 °F6.4 °F31 %30.35 in10.0 miNNE (20°)3.5 mphClear
4:55 AM30.7 °F3.6 °F32 %30.35 in10.0 miCalmClear
5:15 AM29.7 °F4.3 °F34 %30.35 in10.0 miCalmClear
5:35 AM28.2 °F7.7 °F42 %30.36 in10.0 miCalmClear
5:55 AM26.2 °F11.3 °F53 %30.38 inCalmClear
6:15 AM25.3 °F11.7 °F56 %30.38 inCalmClear
6:35 AM23.7 °F12.0 °F61 %30.39 inCalmClear
6:55 AM23.2 °F11.8 °F62 %30.39 in10.0 miCalmClear
7:15 AM23.9 °F11.3 °F59 %30.39 in10.0 miNNW (340°)4.6 mphClear
7:35 AM25.9 °F10.8 °F53 %30.39 in10.0 miNW (320°)3.5 mphClear
7:55 AM29.1 °F9.5 °F44 %30.40 in10.0 miNNE (30°)3.5 mphClear
8:15 AM30.0 °F9.1 °F42 %30.40 in10.0 miNorth (10°)6.9 mphClear
8:35 AM31.8 °F8.1 °F37 %30.41 in10.0 miNNE (20°)8.1 mphClear
8:55 AM32.2 °F7.9 °F36 %30.41 in10.0 miNorth (360°)3.5 mphClear
9:15 AM32.9 °F8.4 °F36 %30.41 in10.0 miCalmClear
9:35 AM33.3 °F9.5 °F37 %30.41 in10.0 miNorth (360°)3.5 mphClear
9:55 AM35.6 °F10.0 °F35 %30.42 in10.0 miNorth (360°)5.8 mphClear
10:15 AM37.8 °F10.0 °F32 %30.42 in10.0 miNNE (30°)3.5 mphClear
10:35 AM39.4 °F9.9 °F30 %30.41 in10.0 miNNE (20°)5.8 mphClear
10:55 AM41.4 °F8.6 °F26 %30.41 in10.0 miNNE (20°)3.5 mphClear
11:15 AM42.3 °F7.0 °F23 %30.41 in10.0 miENE (60°)4.6 mphClear
11:35 AM42.8 °F7.7 °F24 %30.40 in10.0 miCalmClear
11:55 AM42.6 °F7.3 °F23 %30.38 in10.0 miENE (70°)4.6 mphClear
12:15 PM44.1 °F6.3 °F21 %30.37 in10.0 miCalmClear
12:35 PM45.0 °F6.4 °F21 %30.36 in10.0 miCalmClear
12:55 PM46.8 °F6.1 °F19 %30.36 in10.0 miCalmClear
1:15 PM47.8 °F7.2 °F19 %30.35 in10.0 miSSE (150°)3.5 mphClear
1:35 PM49.3 °F7.5 °F18 %30.35 in10.0 miCalmClear
1:55 PM50.0 °F11.7 °F21 %30.35 in10.0 miCalmClear
2:15 PM50.2 °F11.1 °F21 %30.35 in10.0 miSSE (150°)3.5 mphClear
2:35 PM50.7 °F12.2 °F21 %30.35 in10.0 miCalmClear
2:55 PM50.7 °F12.6 °F22 %30.35 in10.0 miEast (80°)5.8 mphClear
3:15 PM48.2 °F11.1 °F22 %30.36 in10.0 miEast (80°)4.6 mphClear
3:35 PM48.4 °F11.5 °F23 %30.36 in10.0 miCalmClear
3:55 PM48.6 °F10.4 °F21 %30.36 in10.0 miCalmClear
4:15 PM48.9 °F9.3 °F20 %30.35 in10.0 miCalmClear
4:35 PM49.5 °F9.7 °F20 %30.36 in10.0 miCalmClear
4:55 PM48.6 °F8.6 °F20 %30.36 in10.0 miCalmClear
5:15 PM47.5 °F9.9 °F22 %30.36 in10.0 miCalmClear
5:35 PM47.5 °F8.6 °F21 %30.36 in10.0 miCalmClear
5:55 PM47.3 °F9.5 °F22 %30.36 in10.0 miCalmClear
6:15 PM47.1 °F10.2 °F22 %30.37 in10.0 miCalmClear
6:35 PM47.5 °F10.4 °F22 %30.37 in10.0 miCalmClear
6:55 PM47.8 °F9.9 °F22 %30.37 in10.0 miCalmClear
7:15 PM47.3 °F7.2 °F20 %30.36 in10.0 miCalmClear
7:35 PM47.1 °F6.3 °F19 %30.37 in10.0 miCalmClear
7:55 PM47.3 °F4.1 °F17 %30.36 in10.0 miCalmClear
8:15 PM46.4 °F7.7 °F21 %30.36 in10.0 miCalmClear
8:35 PM46.0 °F8.2 °F21 %30.36 in10.0 miCalmClear
8:55 PM45.7 °F8.4 °F22 %30.37 in10.0 miNorth (360°)3.5 mphClear
9:15 PM45.5 °F7.5 °F21 %30.37 in10.0 miNorth (10°)4.6 mphClear
9:35 PM45.3 °F7.7 °F22 %30.37 in10.0 miCalmClear
9:55 PM44.4 °F7.7 °F22 %30.37 in10.0 miCalmClear
10:15 PM44.8 °F7.3 °F22 %30.38 in10.0 miCalmClear
10:35 PM45.3 °F6.3 °F20 %30.38 in10.0 miCalmClear
10:55 PM45.7 °F5.2 °F19 %30.37 in10.0 miCalmClear
11:15 PM45.5 °F4.8 °F19 %30.37 in10.0 miCalmClear
11:35 PM44.2 °F3.7 °F19 %30.36 in10.0 miCalmClear
11:55 PM44.8 °F2.1 °F17 %30.35 in10.0 miCalmClear
Hourly data recorded from KLAM, located miles away from Truchas, New Mexico







STORIES FROM OUR PARTNERS